COSMOS 2493 (SKRL-756 1)

Last updated on Wed Sep 09 2026 00:03:47 GMT+0000 (Coordinated Universal Time)

1 39490U 13078A 26251.54043584 .00002932 00000+0 21843-3 0 9999 2 39490 82.4150 179.6233 0012075 330.1881 29.8655 15.02527096690475
UTC large
Height (km)
Speed (km/s)
/
Latitude / Longitude
Inclination (degrees)
Orbital Period (minutes)
Azimuth
Elevation
Range (km)
Doppler Factor

Next 0 passes for location: London (51.5072 / 0.1276)

No passes found over London.
COSMOS 2493 (SKRL-756 1)